YUNHAI 2-2F

导读

YUNHAI 2-2F(云海二号 2F)是中国研制的遥感卫星,于北京时间2024年3月21日,在酒泉卫星发射中心通过长征二号丁运载火箭/远征三号上面级发射升空,随后顺利进入预定轨道,发射任务取得圆满成功。该卫星属于云海二号卫星系列,主要服务于大气环境要素探测、空间环境监测、防灾减灾以及空间科学试验等领域,将为我国环境监测和灾害防控提供有力支撑。

基本信息
目录编号:
59285
目录名称:
YUNHAI 2-2F
国际标识:
2024-052F
轨道中心:
EARTH
卫星名称:
YUNHAI 2-2F
卫星全名:
YUNHAI 2-2F
卫星状态:
在轨 (已飞行822 天)
发射日期:
2024-03-21 UTC
国别 :
中国 (CN)
星等 :
--
轨道信息
数据来源 国际轨道数据 AOE轨道数据
星历时间 2026-06-20T20:15:50+0800
14小时前
查看轨道信息
2026-06-18T03:00:00+0800
3天前
查看轨道信息
半长轴 7176.592km 7176.594km
偏心率 0.0005279 0.000537
轨道倾角 50.010° 50.007°
近地点辐角 195.158° 189.141°
升交点赤经 188.867° 200.392°
平近点角 164.918° 221.973°
近地点 794.666km 794.603km
远地点 802.244km 802.311km
周期 100.841分钟 100.841分钟
每日圈数 14.279907 14.279901
详细信息
使用方式:
暂无
2D轨道图
3D轨道图
轨道高度分析图
轨道倾角分析图
轨道综合分析图
查看轨道综合分析图